Weather in Ningbo

China     29°52′31″N   121°31′47″E
temp.,
°C
wind,
m/s
gust,
m/s
humid.,
%
clouds,
%
prec.,
mm/h
press.,
hPa
HPBL,
m
16 may, mon
mon1623:00+15ssw2271100 0.0 101852
02:00+14wsw227391 0.0 101769
05:00+13wsw1275100 0.0 101627
08:00+17wnw2463100 0.0 1017395
11:00+20nw2351100 0.0 1016945
14:00+22ene1240100 0.0 10151850
17:00+21se11471 0.0 10141009
20:00+16sse22614 0.0 101634
17 may, tue
tue1723:00+14s23750 0.0 101671
02:00+13s23780 0.0 101561
05:00+12ssw22782 0.0 101554
08:00+18s22610 0.0 1017266
11:00+24sse22420 0.0 10161197
14:00+25ese223590 0.0 10161946
17:00+21sse4750100 0.0 1016319
20:00+16sse3666100 0.0 1017115
18 may, wed
wed1823:00+14s3563100 0.0 1018113
02:00+14s2570100 0.0 1017108
05:00+13s2369100 0.0 101859
08:00+17s2456100 0.0 1019203
11:00+23s4638100 0.0 1019855
14:00+25sse5734100 0.0 10181312
17:00+21se4847100 0.0 1018512
20:00+17sse3967100 0.0 1019319
19 may, thu
thu1923:00+15sse2679100 0.0 1019155
02:00+15sse2676100 0.0 1017193
05:00+15se2377100 0.0 101870
08:00+18sse3668100 0.0 1018396
11:00+21sse3668100 0.0 1017747
14:00+20se3678100 0.0 1015470
17:00+19se3784100 0.0 1014342
20:00+18sse2688100 0.0 1015250
20 may, fri
fri2023:00+17sse1391100 0.0 101499
02:00+17s1192100 0.0 101325
05:00+17ssw1292100 0.0 101235
08:00+21sse1280100 0.0 1013397
11:00+24ne1170100 0.2 1012947
14:00+21e3486100 1.3 1011440
17:00+20ese2589100 0.8 1011337
20:00+19ese1292100 0.8 101285